This is the latest recevied weather packets stored in our database for station/object AA7VG. If no packets are shown the sender has not sent any weather packets the latest 10 day(s).
| Time | Temp. | Humidity | Pressure | Rain* | Wind** | Luminosity | Snow |
|---|---|---|---|---|---|---|---|
| 1777611852 | 5.56° C | 53% | 1020.3 hPa | 0 mm | - | - | - |
| 1777611549 | 5.56° C | 53% | 1020.2 hPa | 0 mm | - | - | - |
| 1777611245 | 5.56° C | 53% | 1020.3 hPa | 0 mm | - | - | - |
| 1777610942 | 6.11° C | 53% | 1019.9 hPa | 0 mm | - | - | - |
| 1777610637 | 6.11° C | 53% | 1020.1 hPa | 0 mm | - | - | - |
| 1777610336 | 6.11° C | 53% | 1020.2 hPa | 0 mm | - | - | - |
| 1777610033 | 6.11° C | 52% | 1020.1 hPa | 0 mm | - | - | - |
| 1777609729 | 6.67° C | 51% | 1020.1 hPa | 0 mm | - | - | - |
| 1777609426 | 6.67° C | 49% | 1020.2 hPa | 0 mm | - | - | - |
| 1777609124 | 7.22° C | 48% | 1019.9 hPa | 0 mm | - | - | - |
| 1777608821 | 7.22° C | 47% | 1020 hPa | 0 mm | - | - | - |
| 1777608518 | 7.78° C | 46% | 1020 hPa | 0 mm | - | - | - |
| 1777608216 | 7.78° C | 46% | 1020.2 hPa | 0 mm | - | - | - |
| 1777607913 | 7.78° C | 45% | 1020.1 hPa | 0 mm | - | - | - |
| 1777607608 | 8.33° C | 44% | 1019.9 hPa | 0 mm | - | - | - |
| 1777607305 | 8.33° C | 43% | 1019.9 hPa | 0 mm | - | - | - |
| 1777607001 | 8.89° C | 41% | 1020.1 hPa | 0 mm | - | - | - |
| 1777606697 | 9.44° C | 39% | 1019.9 hPa | 0 mm | - | - | - |
| 1777606393 | 9.44° C | 38% | 1019.9 hPa | 0 mm | - | - | - |
| 1777606088 | 9.44° C | 36% | 1019.9 hPa | 0 mm | - | - | - |
| 1777605784 | 8.89° C | 37% | 1019.9 hPa | 0 mm | - | - | - |
| 1777605483 | 9.44° C | 38% | 1019.7 hPa | 0 mm | - | - | - |
| 1777605180 | 9.44° C | 36% | 1019.7 hPa | 0 mm | - | - | - |
| 1777604875 | 10° C | 35% | 1019.7 hPa | 0 mm | - | - | - |
| 1777604571 | 10° C | 36% | 1019.6 hPa | 0 mm | - | - | - |
* Rain latest hour (hover to see other rain measurements)
** Current wind speed in m/s (hover to see current wind gust speed)